COSMOS 2251 DEB, 40794

Orbit data source: Space-Track

COSMOS 2251 DEB, 40794 is space debris in LEO originally from a launch on Wed, 16 Jun 1993 UTC launched from the Plesetsk Missile And Space Complex (PKMTR). The debris from Iridium 33, an American commercial communications satellite, has been tracked extensively since its accidental collision with the defunct Russian satellite Cosmos 2251 in 2009. This event, occurring at high speed in low Earth orbit (LEO), generated thousands of pieces of space debris, significantly increasing the risk of further collisions. The Iridium 33 debris cloud has impacted space traffic management and orbital debris mitigation strategies, making it a subject of ongoing study in space situational awareness.

Loading next visibility...
COSMOS 2251 DEB details
Identifier
40794, 1993-036BVX
Orbit
LEO
Last TLE update22 hours ago
Origin
Flag of CISKVR (CIS)
ManufacturerUnknown
MissionSpacecraft
Bus & MotorUnknown
MassUnknown
Launch date (UTC)
1993-06-16 (32 years ago)
Launch vehicleUnknown
Launch site
Plesetsk Missile And Space Complex (PKMTR)
Object type
Payload
Rocket body
Debris
Shape & HBRUnknown
Radar Cross SectionSmall (<0.1 m²)

Expand to show TLE details & history

TLE from 22 hours ago
0 COSMOS 2251 DEB
1 40794U 93036BVX 24360.56041738  .00046549  00000-0  75356-2 0  9990
2 40794  73.9769 101.6611 0027308 315.4067  58.7977 14.70771023567103
Epoch: 2024-12-25T13:27Z
Definitive object data (Epoch: 2024-12-25T13:27:00.061Z)
Latitude13.87296°
Longitude169.40359°
Altitude650.599 km
Speed7.539 km/s
True Right ascension07h 02m 49s
True Declination13° 47' 31"
Sunlit
Object was in full shadow at TLE epoch
Visualization TLE readout
Latitude-37.09084°
Longitude-3.96758°
Altitude673.641 km
Speed7.518 km/s
Apparent Right ascension21h 05m 34s
Apparent Declination-41° 14' 35"
Sunlit
Object is in daylight
Visualization observer readout
Local Sidereal Time10:57:21
Azimuth102.702° ESE
Elevation-68.825°
Doppler factor1
Orbital elements
Apogee altitude675.408 km
Perigee altitude636.989 km
Semi-major axis7,034.336 km
Eccentricity0.0027308
Inclination73.9769°
RAAN101.6611°
Arg. of periapsis315.4067°
True anomaly59.06583°
Mean anomaly58.7977°
Eccentric anomaly58.93172°
Mean motion3.67882 °/min
BSTAR0.0075356
Orbital period97.86 mins
Loading maneuver chart data...

COSMOS 2251 DEB Visibility forecast

Observer location: undefined°, undefined

Span
Click to sort rows by Start time (UTC) header in descending order
Start Az.
Max El. time (UTC)
Max El. Az.
Max El.
End time (UTC)
End Az.
8 mins2024-12-26 17:40:59.054Z356.993° N2024-12-26 17:44:59.054Z61.055° ENE33.03°2024-12-26 17:48:59.054Z133.385° SE
4 mins2024-12-26 19:22:59.054Z286.566° WNW2024-12-26 19:24:59.054Z253.955° W18.09°2024-12-26 19:26:59.054Z225.513° WSW
7 mins2024-12-27 07:57:59.054Z194.8° SSW2024-12-27 08:00:59.054Z80.102° E44.856°2024-12-27 08:04:59.054Z20.321° NNE
|